This is the latest recevied weather packets stored in our database for station/object KB1FPD. If no packets are shown the sender has not sent any weather packets the latest 10 day(s).
| Time | Temp. | Humidity | Pressure | Rain* | Wind** | Luminosity | Snow |
|---|---|---|---|---|---|---|---|
| 1777832515 | 13.33° C | 53% | 1015.2 hPa | 0 mm | - | - | - |
| 1777832211 | 13.33° C | 49% | 1015.2 hPa | 0 mm | - | - | - |
| 1777831913 | 12.78° C | 54% | 1015.3 hPa | 0 mm | - | - | - |
| 1777831617 | 12.78° C | 44% | 1015.3 hPa | 0 mm | - | - | - |
| 1777831316 | 12.78° C | 44% | 1015.3 hPa | 0 mm | - | - | - |
| 1777831012 | 12.78° C | 43% | 1015.2 hPa | 0 mm | - | - | - |
| 1777830708 | 12.78° C | 45% | 1015.3 hPa | 0 mm | - | - | - |
| 1777830410 | 12.78° C | 51% | 1015.4 hPa | 0 mm | - | - | - |
| 1777830108 | 12.22° C | 50% | 1015.4 hPa | 0 mm | - | - | - |
| 1777829808 | 12.78° C | 47% | 1015.4 hPa | 0 mm | - | - | - |
| 1777829513 | 12.78° C | 43% | 1015.5 hPa | 0 mm | - | - | - |
| 1777829208 | 12.78° C | 51% | 1015.5 hPa | 0 mm | - | - | - |
| 1777828908 | 12.78° C | 54% | 1015.3 hPa | 0 mm | - | - | - |
| 1777828610 | 12.22° C | 48% | 1015.5 hPa | 0 mm | - | - | - |
| 1777828308 | 12.22° C | 48% | 1015.6 hPa | 0 mm | - | - | - |
| 1777828007 | 11.67° C | 54% | 1015.4 hPa | 0 mm | - | - | - |
| 1777827712 | 11.67° C | 51% | 1015.6 hPa | 0 mm | - | - | - |
| 1777827410 | 11.11° C | 55% | 1015.6 hPa | 0 mm | - | - | - |
| 1777827107 | 11.11° C | 47% | 1015.7 hPa | 0 mm | - | - | - |
| 1777826811 | 11.67° C | 57% | 1015.7 hPa | 0 mm | - | - | - |
| 1777826510 | 11.11° C | 54% | 1015.7 hPa | 0 mm | - | - | - |
| 1777826208 | 11.11° C | 55% | 1015.9 hPa | 0 mm | - | - | - |
| 1777825915 | 10.56° C | 54% | 1015.9 hPa | 0 mm | - | - | - |
| 1777825609 | 10.56° C | 52% | 1015.7 hPa | 0 mm | - | - | - |
| 1777825315 | 10.56° C | 51% | 1016.1 hPa | 0 mm | - | - | - |
* Rain latest hour (hover to see other rain measurements)
** Current wind speed in m/s (hover to see current wind gust speed)